Terminal Aerodrome Forecast
Issued by NWS Blacksburg, VA

Current Version | Previous Version | Graphics & Text | Print | Product List | Glossary On
Versions: 1 2 3 4 5 6 7 8 9 10 11 12 13 14 15 16 17 18 19 20 21 22 23 24 25 26 27 28 29 30 31 32 33 34 35 36 37 38 39 40 41 42 43 44 45 46 47 48 49 50
000
FTUS41 KRNK 182156 AAA
TAFBLF
TAF AMD
KBLF 182156Z 1822/1918 29010KT P6SM -RA BKN010
     FM182300 30012G22KT P6SM -RA OVC008
     FM190700 31008G16KT P6SM OVC018
     FM191200 30006KT P6SM OVC015
     FM191400 30007KT P6SM BKN250=

USA.gov is the U.S. government's official web portal to all federal, state and local government web resources and services.